STARLINK-1172 (45074 NORAD) Tracking and Keplerian Element Data

This shows tracking and keplerian element data for the satellite.

Feedback or suggestion? Click here.




ElementValue
Catalog45074
NameSTARLINK-1172
Epoch Orbit404
Epoch Day52.91667824
Epoch Year2020
RAAN119.486
Inclination52.9964
Eccentricity0.0001312
Argument of Perigee22.5042
Mean Anonmoly134.6828
Mean Motion15.73149866
Decay Rate0.00349822
L11 45074U 20006AG 20052.91667824 .00349822 00000-0 23991-2 0 9994
L22 45074 52.9964 119.4860 0001312 22.5042 134.6828 15.73149866 4048

Live tracking and technical data element details for STARLINK-1172 (NORAD 45074). STARLINK-1172 can be tracked NOW for your location showing map with azimuth and elevation plus other details from your city location.

Track the satellite on the map from your city or location and see movement details for azimuth, elevation, latitude, longitude, range, height, and movement on the map or in text.







IsCatalogInMostPopularTable: catalog: 45074, numindb: 6
Update: records affected: 1



GetName: 45074 STARLINK-1172

Hit Count: updated at: Mon, 24 Feb 2020 17:22:11 GMT